Location: *
(10.5081°N, 66.9194°W)
Time: 04:37:45
(UTC+00:00)

GPS 2-15 Rocket1 - Pass Details

Date: 30 March 2020
Orbit: 624 x 675 km, 19.8° (Epoch: 25 May)

Event Time Altitude Azimuth Distance (km) Brightness Sun altitude
Rises 22:57:39 0° 273° (W) 2,996 9.5 -5.5°
Reaches altitude 10° 23:00:13 10° 282° (WNW) 2,077 7.6 -6.2°
Maximum altitude 23:04:45 37° 349° (N) 1,026 4.4 -7.3°
Drops below altitude 10° 23:09:12 10° 57° (ENE) 2,049 5.3 -8.4°
Enters shadow 23:10:17 - 61° (ENE) 2,426 5.6 -8.6°
